CDT,Max TemperatureF,Mean TemperatureF,Min TemperatureF,Max Dew PointF,MeanDew PointF,Min DewpointF,Max Humidity, Mean Humidity, Min Humidity, Max Sea Level PressureIn, Mean Sea Level PressureIn, Min Sea Level PressureIn, Max VisibilityMiles, Mean VisibilityMiles, Min VisibilityMiles, Max Wind SpeedMPH, Mean Wind SpeedMPH, Max Gust SpeedMPH,PrecipitationIn, CloudCover, Events, WindDirDegrees
2011-10-1,87,72,57,44,38,34,49,33,16,30.21,30.13,30.07,10,10,10,13,4,17,0.00,0,,62
2011-10-2,86,70,53,45,41,36,71,45,19,30.25,30.16,30.11,10,10,10,13,3,16,0.00,0,,64
2011-10-3,86,72,57,55,45,40,77,49,20,30.25,30.17,30.12,10,10,10,10,3,14,0.00,0,,134
2011-10-4,87,71,54,54,50,46,77,51,25,30.25,30.16,30.09,10,10,10,16,4,21,0.00,0,,145
2011-10-5,89,74,58,64,54,40,93,55,17,30.15,30.07,29.98,10,10,3,17,8,24,0.00,0,,129
2011-10-6,92,79,65,70,65,63,93,67,41,30.05,29.99,29.92,10,9,6,24,12,28,0.00,2,,124
2011-10-7,92,83,73,70,69,66,87,66,44,30.06,30.01,29.96,10,10,10,24,13,30,T,4,,130
2011-10-8,93,83,72,70,68,62,93,65,36,30.05,29.99,29.89,10,10,9,25,13,33,0.00,4,,124
2011-10-9,76,71,66,70,66,63,93,86,79,30.02,29.98,29.92,10,8,1,24,7,32,0.82,6,Rain,103
2011-10-10,86,77,67,67,65,63,100,74,48,30.04,29.98,29.91,10,9,6,13,6,20,0.00,5,,359
2011-10-11,87,76,65,64,63,59,87,65,42,29.94,29.88,29.80,10,10,9,10,3,20,0.00,1,,78
2011-10-12,87,78,68,70,66,63,90,67,43,29.85,29.80,29.74,10,10,9,12,5,18,0.05,4,,183
2011-10-13,86,74,62,68,52,37,93,57,20,29.97,29.90,29.85,10,10,6,18,8,25,0.01,1,,343
2011-10-14,87,70,53,52,45,40,72,46,19,30.01,29.96,29.91,10,10,10,14,4,18,0.00,0,,144
2011-10-15,88,74,59,60,54,49,87,57,26,30.10,30.03,29.98,10,10,10,13,3,17,0.00,0,,145
2011-10-16,87,73,59,63,59,54,93,63,32,30.10,30.03,29.95,10,10,8,13,5,20,0.00,0,,166
2011-10-17,89,77,65,70,65,60,100,70,40,29.97,29.89,29.68,10,5,0,18,9,24,0.00,3,Fog,184
2011-10-18,75,64,53,70,44,35,84,57,30,30.06,29.92,29.73,10,10,10,31,17,130,0.00,1,,317
2011-10-19,74,60,45,37,32,27,65,42,19,30.14,30.07,29.99,10,10,10,23,11,44,0.00,0,,323
2011-10-20,78,60,42,47,35,30,70,45,19,30.16,30.08,30.00,10,10,10,15,5,18,0.00,0,,146
2011-10-21,87,73,58,62,56,46,80,59,37,30.16,30.09,30.03,10,10,10,16,8,23,0.00,1,,151
2011-10-22,86,74,62,62,59,56,90,64,37,30.11,30.04,29.96,10,10,10,21,10,28,0.00,0,,167
2011-10-23,87,76,64,63,61,59,87,65,42,30.08,30.00,29.95,10,10,10,16,5,29,0.00,3,,156
2011-10-24,89,76,63,65,61,55,93,64,34,30.18,30.11,30.08,10,10,5,9,4,13,0.00,1,,74
2011-10-25,88,77,65,67,63,57,100,68,36,30.15,30.09,29.96,10,8,0,21,9,24,0.00,3,Fog,172
2011-10-26,88,78,68,68,64,57,97,67,36,29.99,29.92,29.82,10,9,4,17,10,24,0.00,3,,178
2011-10-27,76,65,53,68,59,48,93,73,53,30.06,29.90,29.83,10,10,6,25,9,33,0.08,6,Rain,344
2011-10-28,62,55,48,48,44,38,83,65,46,30.29,30.18,30.06,10,10,9,21,12,26,T,6,,347
2011-10-29,68,54,39,41,34,27,85,54,22,30.34,30.23,30.12,10,10,10,10,4,15,0.00,0,,156
2011-10-30,74,60,45,45,40,35,76,53,29,30.20,30.15,30.09,10,10,10,14,2,18,0.00,0,,143
2011-10-31,79,64,48,53,45,42,86,58,30,30.24,30.18,30.11,10,10,10,13,3,16,0.00,0,,155